WHDW 03-06

operational
NORAD ID: 63692 Int'l Des: 2025-086 Owner: ZXW Country: CN
LEOCIRCULARPOLARONEWEB_TYPE

关于 WHDW 03-06

正在加载描述...

实时位置

正在加载3D地球...

即将过境

高度历史

Altitude vs Time

uPlot chart will show altitude changes over time

两行轨道根数

1 63692U 25086F 26061.16933270 .00000020 00000-0 11661-4 0 9994
2 63692 86.5105 349.0852 0001618 91.4542 268.6778 13.24421433 40695
Epoch: Mar 2, 2026 • Age: 25 hours

当前状态

高度 1170.0 km
速度 7.27 km/s
星下点 20.87°N, 5.49°W
发射日期 Apr 28, 2025
运行时间 0.8 years
类型 other

技术详情

分类 Payload
质量 800.00 kg
干质量 800.00 kg
总质量 800.00 kg
长度 3.00 m
直径 1.00 m
跨度 10.00 m
形状 Box + 2 Pan
制造商 CAST
平台类型 Xingwang CL
阶段状态 In Orbit
所有者/国家 ZXW/CN

大型星座

Loading constellations...